Regional Weather Roundup
Issued by NWS Cleveland, OH

Home | Current Version | Previous Version | Text Only | Print | Product List | Glossary Off
Versions: 1 2 3 4 5 6 7 8 9 10 11 12 13 14 15 16 17 18 19 20 21 22 23 24 25 26 27 28 29 30 31 32 33 34 35 36 37 38 39 40 41 42 43 44 45 46 47 48 49 50

000
ASUS41 KCLE 170810
RWRCLE
OHIO REGIONAL WEATHER ROUNDUP
NATIONAL WEATHER SERVICE WILMINGTON, OH
400 AM EDT WED SEP 17 2014

NOTE: "FAIR" INDICATES FEW OR NO CLOUDS BELOW 12,000 FEET WITH NO
SIGNIFICANT WEATHER AND/OR OBSTRUCTIONS TO VISIBILITY.

OHZ001>008-015>018-024>027-034-035-043-044-170900-
   NORTHWEST OHIO

CITY           SKY/WX    TMP DP  RH WIND       PRES   REMARKS
DEFIANCE       CLEAR     44  41  89 CALM      30.09S
FINDLAY        CLEAR     45  42  89 CALM      30.07F
TOLEDO EXPRESS CLEAR     44  42  93 CALM      30.07S
TOLEDO METCALF CLEAR     47  42  83 CALM      30.08S
LIMA           CLEAR     47  44  90 CALM      30.08F
$$

OHZ009>014-019>023-028>033-038-089-170900-
   NORTHEAST OHIO

CITY           SKY/WX    TMP DP  RH WIND       PRES   REMARKS
CLE-HOPKINS    PTCLDY    47  44  90 S5        30.09F
CLE-LAKEFRONT  MOCLDY    51  46  83 S6        30.06S
CUY CO. ARPT   NOT AVBL
LORAIN-ELYRIA  CLEAR     49  44  83 CALM      30.08S
ASHTABULA      CLEAR     45  43  93 CALM      30.08F
AKRON-CANTON   CLEAR     49  46  90 CALM      30.08F FOG
WOOSTER        FOG       44  41  89 CALM      30.09S VSB 1/4
MANSFIELD      CLEAR     45  45 100 S3        30.08F FOG
YOUNGSTOWN     PTCLDY    46  45  96 CALM      30.08S FOG
$$

OHZ042-051>053-060>062-070>072-077>081-170900-
  SOUTHWEST OHIO

CITY           SKY/WX    TMP DP  RH WIND       PRES   REMARKS
CINC-COVINGTON CLEAR     50  47  89 CALM      30.08F FOG
CINC-LUNKEN    CLEAR     46  45  96 CALM      30.10S FOG
HAMILTON       CLEAR     46  45  96 CALM      30.10S FOG
DAYTON         CLEAR     46  44  93 CALM      30.09F
WRIGHT-PAT AFB FOG       46  46  99 CALM      30.08F VSB 1/8
DAYTON GENERAL CLEAR     48  46  93 CALM      30.08F FOG
WILMINGTON     FOG       44  42  93 CALM      30.08F VSB 1/2
$$

OHZ036-037-039>041-045>050-054>059-063>069-073>076-082>088-170900-
  CENTRAL AND SOUTHEAST OHIO

CITY           SKY/WX    TMP DP  RH WIND       PRES   REMARKS
COLUMBUS       PTCLDY    50  45  83 CALM      30.08F
OSU AIRPORT    CLEAR     47  45  93 CALM      30.08F FOG
BOLTON FIELD   CLEAR     45  44  98 CALM      30.09S
RICKENBACK AFB PTCLDY    44  44  98 CALM      30.08S
NEWARK         FOG       42  40  92 CALM      30.08S VSB 1/4
MARION         FOG       43  41  93 CALM      30.08F VSB 1/2
LANCASTER      MOCLDY    44  42  93 N3        30.09S FOG
ZANESVILLE     MOCLDY    49  46  90 CALM      30.08F
NEW PHILLY     FOG       48  48 100 CALM      30.09F VSB 1/2
$$



USA.gov is the U.S. government's official web portal to all federal, state and local government web resources and services.